Location: American Medical Response
(33.3472°N, 96.5511°W)
Time: 09:20:16
(UTC+00:00)

SJ 16-02 - Pass Details

Date: 05 July 2022
Orbit: 604 x 615 km, 75.0° (Epoch: 13 August)

Event Time Altitude Azimuth Distance (km) Brightness Sun altitude
Rises 05:21:54 0° 3° (N) 2,889 5.8 -31.5°
Reaches altitude 10° 05:24:48 10° 22° (NNE) 1,979 4.5 -31.7°
Enters shadow 05:26:13 15° 40° (NE) 1,667 3.9 -31.8°
